Weather Roundup
Issued by NWS Chicago, IL

Home | Current Version | Previous Version | Text Only | Print | Product List | Glossary Off
Versions: 1 2 3 4 5 6 7 8 9 10 11 12 13 14 15 16 17 18 19 20 21 22 23 24 25 26 27 28 29 30 31 32 33 34 35 36 37 38 39 40 41 42 43 44 45 46 47 48 49 50

000
NZUS59 KLOT 292303
HRRLOT

CHICAGO AREA WEATHER ROUNDUP
NATIONAL WEATHER SERVICE CHICAGO/ROMEOVILLE IL
600 PM CDT WED MAR 29 2017

NOTE: "FAIR" INDICATES FEW OR NO CLOUDS BELOW 12,000 FEET WITH NO
SIGNIFICANT WEATHER AND/OR OBSTRUCTIONS TO VISIBILITY.

* THESE STATIONS ARE NOT UNDER NWS QUALITY CONTROL. THEY ALSO MAY NOT
  REPORT WEATHER SUCH AS PRECIPITATION OR FOG.

ILZ005-006-012>014-019>023-300000-
NORTHEAST ILLINOIS

CITY           SKY/WX    TMP DP  RH WIND       PRES   REMARKS
OHARE          CLOUDY    47  34  60 NE18      30.06F
MIDWAY         CLOUDY    48  35  60 E20       30.05F
AURORA         CLOUDY    49  35  58 E20G25    30.03F
LANSING*       CLOUDY    49  40  70 NE7       30.05S
JOLIET*        CLOUDY    50  38  63 NE13G20   30.03F
WAUKEGAN       LGT RAIN  41  34  76 NE12G23   30.10F
DUPAGE AIRPORT CLOUDY    48  36  63 E17G25    30.04F
WHEELING       CLOUDY    44  35  70 NE17G25   30.10F
MORRIS*        LGT RAIN  48  38  70 E12       30.02R
NORTHERLY ISL    N/A     41  36  82 NE18        N/A
$$

WIZ051-052-058>065-066-070>072-300000-
SOUTHEAST WISCONSIN

CITY           SKY/WX    TMP DP  RH WIND       PRES   REMARKS
MILWAUKEE      CLOUDY    38  34  85 N15G24    30.15F
KENOSHA*       CLOUDY    42  33  70 NE15      30.13F
RACINE*        CLOUDY    39  34  82 NE16G23   30.15F
WAUKESHA       CLOUDY    39  32  75 NE15G22   30.15F
WEST BEND      CLOUDY    39  32  75 NE12      30.17S
$$

INZ001>003-010>013-019-020-300000-
NORTHWEST INDIANA

CITY           SKY/WX    TMP DP  RH WIND       PRES   REMARKS
GARY*          CLOUDY    46  37  71 E15G26    30.07F
MICHIGAN CITY* NOT AVBL
RENSSELAER*    NOT AVBL
VALPARAISO     CLOUDY    53  38  56 E21       30.06F
$$

LMZ740>746-300000-
SOUTHERN LAKE MICHIGAN

STATION/POSITION TIME  SKY/WX   TEMP WIND        PRES    VSBY
                                AIR  DIR/SP/G
                 (UTC)          (F)  (DEG/KT/KT) (MB)    (MI)
HARRISON CRIB    2240            42   50/ 24/ 26   N/A
BURNHAM HARBOR   2300            41   30/ 15/ 17   N/A
CALUMET HARBOR   2230            43   40/ 13/ 20 1017.7F
BURNS HARBOR     2240            53   90/ 15/ 21 1018.3F
MICHIGAN CITY    2240            54   60/ 18/ 20   N/A
$$

ABBREVIATIONS USED IN REMARKS
   TC - TEMPERATURE IN CELSIUS
  WCI - WIND CHILL INDEX
   HX - HEAT INDEX
  VSB - VISIBILITY
$$




USA.gov is the U.S. government's official web portal to all federal, state and local government web resources and services.